Weather History for KVEL - July, 2013

Change the Weather History Date:

Wednesday, July 3, 2013

  Actual Average Record
Temperature  
Mean Temperature 78 °F 70 °F  
Max Temperature 94 °F 86 °F 97 °F (2001)
Min Temperature 62 °F 55 °F 40 °F (1945)
Degree Days  
Heating Degree Days 0 0  
Month to date heating degree days 0 2  
Since 1 June heating degree days 15 74  
Since 1 July heating degree days 0 2  
Cooling Degree Days 13 6  
Month to date cooling degree days 44 17  
Year to date cooling degree days 222 108  
Since 1 June cooling degree days 214 99  
Growing Degree Days 28 (Base 50)    
Moisture  
Dew Point 38 °F    
Average Humidity 25    
Maximum Humidity 38    
Minimum Humidity 12    
Precipitation  
Precipitation T in 0.02 in 0.30 in (1943)
Month to date precipitation T 0.05  
Year to date precipitation 3.79 4.26  
Sea Level Pressure  
Sea Level Pressure 29.88 in    
Wind  
Wind Speed 5 mph (North)    
Max Wind Speed 31 mph    
Max Gust Speed 38 mph    
Visibility 10 miles    
Events Rain , Thunderstorm    
T = Trace of Precipitation, MM = Missing Value Source: NWS Daily Summary

Daily Weather History Graph

Daily Weather History Graph

Search for Another Location

Airport or City:

Trip Planner

Search our weather history database for the weather conditions in past years. The results will help you decide how hot, cold, wet, or windy it might be!

Date:

Astronomy

Jul. 03, 2013 Rise Set
Actual Time 5:52 AM MDT 8:51 PM MDT
Civil Twilight 5:19 AM MDT 9:24 PM MDT
Nautical Twilight 4:38 AM MDT 10:06 PM MDT
Astronomical Twilight 3:49 AM MDT 10:54 PM MDT
Moon 2:33 AM MDT (7/3) 5:05 PM MDT (7/3)
Length of Visible Light 16h 04m
Length of Day
14h 59m
Waning Crescent, 18% of the Moon is Illuminated
Jul 3
Waning Crescent
Jul 8
New
Jul 15
First Quarter
Jul 22
Full
Jul 29
Last Quarter

Hourly Weather History & Observations

Time (MDT) Temp. Dew Point Humidity Pressure Visibility Wind Dir Wind Speed Gust Speed Precip Events Conditions
12:53 AM 72.0 °F 32.0 °F 23% 29.88 in 10.0 mi NW 4.6 mph - N/A   Clear
1:53 AM 66.9 °F 36.0 °F 32% 29.88 in 10.0 mi NW 4.6 mph - N/A   Clear
2:53 AM 70.0 °F 30.0 °F 23% 29.86 in 10.0 mi Calm Calm - N/A   Clear
3:53 AM 66.9 °F 36.0 °F 32% 29.87 in 10.0 mi Calm Calm - N/A   Clear
4:53 AM 66.0 °F 32.0 °F 28% 29.87 in 10.0 mi Calm Calm - N/A   Clear
5:53 AM 64.9 °F 28.9 °F 26% 29.88 in 10.0 mi NNW 5.8 mph - N/A   Clear
6:53 AM 64.0 °F 36.0 °F 35% 29.89 in 10.0 mi Calm Calm - N/A   Clear
7:53 AM 70.0 °F 42.1 °F 36% 29.90 in 10.0 mi Calm Calm - N/A   Clear
8:53 AM 73.9 °F 32.0 °F 21% 29.91 in 10.0 mi ESE 4.6 mph - N/A   Clear
9:53 AM 77.0 °F 32.0 °F 19% 29.91 in 10.0 mi Calm Calm - N/A   Clear
10:53 AM 80.1 °F 37.9 °F 22% 29.88 in 10.0 mi Calm Calm - N/A   Clear
11:53 AM 86.0 °F 33.1 °F 15% 29.85 in 10.0 mi Variable 4.6 mph - N/A   Clear
12:53 PM 88.0 °F 36.0 °F 16% 29.83 in 10.0 mi South 5.8 mph - N/A   Clear
1:53 PM 91.9 °F 32.0 °F 12% 29.80 in 10.0 mi SSW 6.9 mph - N/A   Clear
2:53 PM 93.0 °F 34.0 °F 12% 29.77 in 10.0 mi South 5.8 mph - N/A   Clear
3:53 PM 93.0 °F 34.0 °F 12% 29.75 in 10.0 mi SSW 3.5 mph - N/A   Clear
4:53 PM 91.9 °F 35.1 °F 13% 29.77 in 10.0 mi NNE 10.4 mph - N/A   Clear
5:29 PM 87.8 °F 35.6 °F 16% 30.02 in 9.0 mi North 27.6 mph 38.0 mph 0.00 in Rain Light Rain
5:38 PM 84.2 °F 41.0 °F 22% 30.01 in 10.0 mi North 24.2 mph 38.0 mph 0.00 in   Scattered Clouds
5:53 PM 86.0 °F 39.9 °F 20% 29.79 in 10.0 mi NNE 16.1 mph 26.5 mph 0.00 in   Partly Cloudy
6:53 PM 82.9 °F 43.0 °F 24% 29.81 in 10.0 mi WNW 8.1 mph - N/A   Clear
7:53 PM 82.9 °F 42.1 °F 24% 29.79 in 10.0 mi NNW 9.2 mph - N/A   Clear
8:53 PM 79.0 °F 46.9 °F 32% 29.79 in 10.0 mi SSW 6.9 mph - N/A   Partly Cloudy
9:11 PM 78.8 °F 44.6 °F 30% 30.03 in 10.0 mi West 3.5 mph - N/A Thunderstorm Thunderstorm
9:53 PM 78.1 °F 46.0 °F 32% 29.86 in 10.0 mi East 10.4 mph - 0.00 in Rain Light Rain
10:15 PM 78.8 °F 44.6 °F 30% 30.07 in 10.0 mi ENE 8.1 mph - 0.00 in Rain , Thunderstorm Light Rain
10:30 PM 75.2 °F 48.2 °F 38% 30.09 in 10.0 mi NE 9.2 mph - 0.00 in   Mostly Cloudy
10:53 PM 75.9 °F 46.0 °F 35% 29.87 in 10.0 mi South 5.8 mph - 0.00 in   Partly Cloudy
11:53 PM 73.9 °F 46.9 °F 38% 29.89 in 10.0 mi NNE 6.9 mph - N/A   Mostly Cloudy